Other Public Products
Issued by NWS Grand Forks, ND

Home | Current Version | Previous Version | Text Only | Print | Product List | Glossary On
Versions: 1 2 3 4 5 6 7 8 9 10 11 12 13 14 15 16 17 18 19 20 21 22 23 24 25 26 27 28 29 30 31 32 33 34 35 36 37 38 39 40 41 42 43 44 45 46 47 48 49 50
000
FPUS83 KFGF 201131
OPUFGF
PRAIRIE TO PINES WEATHER ROUNDUP
NATIONAL WEATHER SERVICE EASTERN NORTH DAKOTA/GRAND FORKS ND
600 AM CDT MON OCT 20 2014

 **SATELLITE DATA USED TO AUGMENT SKY COVER AT AUTOMATED STATIONS**
 *****  WEATHER ACROSS EASTERN NORTH DAKOTA  *****

CITY           SKY/WX    TMP DP  RH WIND       PRES   REMARKS
GRAND FORKS    CLEAR     36  35  96 NW3       30.02R
GRAND FORKS AF CLEAR     36  36  99 NW5       30.03R
GRAND CITY NWS   N/A     36 N/A N/A N3          N/A
BUXTON           N/A     42  41  97 NW5         N/A
DEVILS LAKE    CLEAR     37  30  75 CALM      30.02S
FARGO          CLEAR     39  34  82 N8        30.01R
WAHPETON ARPT  SUNNY     32  28  86 NW6       30.02R
$$

 *****  WEATHER ACROSS CENTRAL AND WESTERN NORTH DAKOTA  *****

CITY           SKY/WX    TMP DP  RH WIND       PRES   REMARKS
JAMESTOWN      CLEAR     38  35  89 W3        30.04R
BISMARCK       MOCLDY    32  31  96 CALM      30.06S
MINOT          CLEAR     44  34  67 SW9       30.00S
MINOT AFB      CLEAR     42  36  77 SW7       30.00R
GARRISON         N/A     33  30  88 CALM      30.02S
WILLISTON      CLEAR     38  33  82 CALM      29.98F
DICKINSON      CLEAR     38  33  82 S8        30.01S
HETTINGER      CLEAR     38  32  79 SE5       30.06S
$$

 *****  OTHER OBSERVATIONS NORTHEAST NORTH DAKOTA  *****

CITY           SKY/WX    TMP DP  RH WIND       PRES   REMARKS
WALHALLA       FAIR      32  32 100 CALM      30.05R
LANGDON        FAIR      32  32 100 NE3       30.03S FOG
CAVALIER       FAIR      36  36 100 CALM      30.04S
GRAFTON        FAIR      37  37 100 NW8       30.04R
CANDO          FAIR      32  32 100 CALM      30.05R
FORT TOTTEN      N/A     39  37  94 CALM      29.95S
ROLLA          FAIR      32  28  86 CALM      30.04S
RUGBY          FAIR      36  36 100 CALM      30.04R
 ***** THE ABOVE OBSERVATIONS ARE NON NWS ARE NOT QUALITY
        CONTROLLED AND MAY MIS-REPORT RAIN FOR SNOW...
$$

 *****  OTHER OBSERVATIONS SOUTHEAST NORTH DAKOTA *****

CITY           SKY/WX    TMP DP  RH WIND       PRES   REMARKS
COOPERSTOWN    NOT AVBL
VALLEY CITY    FAIR      37  37 100 NW8       30.04R
OAKES            N/A     41  37  87 NW7       30.04S
GWINNER        SUNNY     45  36  70 W8        30.04R
BUFFALO          N/A     39  36  89 N7          N/A
WYNDMERE         N/A     39  36  87 NW3         N/A
 ***** THE ABOVE OBSERVATIONS ARE NON NWS ARE NOT QUALITY
       CONTROLLED AND MAY MIS-REPORT RAIN FOR SNOW...
$$

  *****  WEATHER ACROSS NORTHERN MINNESOTA  *****

CITY           SKY/WX    TMP DP  RH WIND       PRES   REMARKS
FLAG ISLAND    CLOUDY    43  39  87 NW15      29.98R
WARROAD        MOCLDY    39  36  87 NW9       30.00R
ROSEAU         CLEAR     36  30  80 NW5       30.01R HAZE
HALLOCK        CLEAR     37  36  93 N6        30.03R
THF RVR FALLS  CLEAR     41  37  87 N8        30.02R
HALSTAD          N/A     36  34  93 N6          N/A
FOSSTON        CLEAR     34  32  93 CALM      30.01R
BAUDETTE       CLOUDY    41  39  93 VRB5      29.97R
WASKISH        CLOUDY    43  41  93 NW7       29.97R
CROOKSTON      CLEAR     36  34  93 N5        30.03R
$$
  *****  WEATHER ACROSS CENTRAL AND WEST MINNESOTA  *****

CITY           SKY/WX    TMP DP  RH WIND       PRES   REMARKS
BEMIDJI        CLEAR     37  36  98 W8        29.98R
PARK RAPIDS    CLEAR     38  36  92 CALM      29.97R
WADENA         CLEAR     39  37  93 NW6       29.98R
DETROIT LAKES  CLEAR     39  36  87 NW5       30.01R
MOORHEAD       CLEAR     37  37 100 CALM      30.03R
FERGUS FALLS   CLEAR     39  34  81 N3        30.02R
ELBOW LAKE     FAIR      40  37  87 N5        30.00R
MORRIS MN      CLEAR     36  34  93 NW6       30.01R
STAPLES        CLEAR     37  36  93 NW3       29.98R
WHEATON        CLEAR     37  36  93 W3        30.04R
$$
  *****  WEATHER ELSEWHERE ACROSS MINNESOTA  *****

CITY           SKY/WX    TMP DP  RH WIND       PRES   REMARKS
DULUTH         CLEAR     45  40  82 NW8       29.88R
INTRNTL FALLS  CLOUDY    41  40  96 NW8       29.93R
ELY            CLOUDY    45  39  81 N7        29.89R
CLOQUET        FAIR      43  39  87 W6        29.91R
BRAINERD       CLEAR     41  39  93 CALM      29.96R
HIBBING        PTCLDY    42  39  89 NW3       29.91R
ALEXANDRIA     CLEAR     42  38  85 NW7       29.99R
SAINT CLOUD    CLEAR     47  40  76 NW5       29.95R
MINNEAPOLIS    CLEAR     47  41  80 W3        29.94R
$$

  *****  WEATHER ACROSS SOUTH DAKOTA  *****

CITY           SKY/WX    TMP DP  RH WIND       PRES   REMARKS
SIOUX FALLS    CLEAR     37  34  89 CALM      30.04R
BROOKINGS      NOT AVBL
WATERTOWN      CLEAR     34  33  96 CALM      30.04R
HURON          CLEAR     33  30  88 CALM      30.07R
SISSETON         N/A     40  35  83 NW5       30.01R
ABERDEEN       CLEAR     32  29  88 CALM      30.05R
MITCHELL       CLEAR     35  32  88 NW3       30.07R
PIERRE         PTCLDY    40  34  79 CALM      30.07R
MOBRIDGE       MOCLDY    35  33  92 CALM      30.04S
RAPID CITY     CLEAR     43  36  76 CALM      30.06F
$$

  *****  SOME WEATHER IN NEARBY STATES *****

CITY           SKY/WX    TMP DP  RH WIND       PRES   REMARKS
GLASGOW MT     CLEAR     42  35  76 E14       29.88F
GREAT FALLS MT CLEAR     53  29  39 S13       29.86S
CHEYENNE WY    CLEAR     39  32  76 W8        30.17F
SCOTTSBLUFF NE CLEAR     37  34  89 CALM      30.11S
OMAHA NE       CLEAR     47  44  90 N8        30.02R
DES MOINES IA  CLEAR     48  43  82 N7        29.98R
DAVENPORT IA   CLEAR     44  40  85 W9        29.88R
CHICAGO IL     MOCLDY    49  44  83 SW8       29.80F
EAU CLAIRE WI  CLEAR     43  39  86 W6        29.89R
LA CROSSE WI   CLEAR     43  40  89 CALM      29.90R
$$

  *****  SOME NATIONAL WEATHER *****

CITY           SKY/WX    TMP DP  RH WIND       PRES   REMARKS
LA GUARDIA NY  MOCLDY    45  30  55 W6        30.09F
RALEIGH NC     PTCLDY    44  40  85 CALM      30.15S
ATLANTA GA     CLEAR     52  47  83 CALM      30.10F
NEW ORLEANS LA PTCLDY    59  55  87 CALM      30.03R
OKLAHOMA CITY  PTCLDY    56  52  86 S7        30.04R
ALBUQUERQUE NM PTCLDY    50  43  77 CALM      30.18S
SALT LAKE CITY CLEAR     48  39  71 E7        30.03S
LOS ANGELES CA MOCLDY    66  62  87 W3        29.88F
BOISE ID       CLEAR     55  31  39 SE8       29.85F
SEATTLE WA     LGT RAIN  58  56  93 SE9       29.71F
$$

*** WEATHER ACROSS MANITOBA...SASKATCHEWAN AND ONTARIO ***
                ***ONTARIO***

CITY           SKY/WX    TMP DP  RH WIND       PRES   REMARKS
GERALDTON      FOG       37  37 100 N5        29.79  VSB 3/4
THUNDER BAY    CLOUDY    46  43  87 NW5       29.83R
SIOUX LOOKOUT  DRIZZLE   41  41 100 N5        29.91R
TORONTO        LGT RAIN  45  39  81 SE3       29.89F
BIG TROUT LK   FOG       32  30  93 N7        29.99R VSB 3/4
PICKLE LAKE    FLURRIES  34  32  93 N7        29.91
DRYDEN         CLOUDY    43  39  87 N8        29.92R
KENORA         MOCLDY    43  36  75 N9        29.96R
$$
                *** MANITOBA***

CITY           SKY/WX    TMP DP  RH WIND       PRES   REMARKS
BRANDON        FOG       30  28  93 E3        30.03S VSB 1
DAUPHIN        CLOUDY    30  30 100 VRB2      30.03R FOG
ISLAND LAKE    NOT AVBL
PILOT MOUND      N/A     30  30 100 SW1         N/A
THE PAS        PTCLDY    39  37  93 SE9       29.99S
THOMPSON       DRIZZLE   32  32 100 NE2       30.05R FOG
WINNIPEG       CLOUDY    43  39  87 N6        30.04S
LYNN LAKE      CLOUDY    36  34  93 S7        30.00R
CHURCHILL      CLOUDY    34  34 100 NW6       30.05R
GILLAM         MOCLDY    36  34  93 N5        30.06S
$$
                ***SASKATCHEWAN***

CITY           SKY/WX    TMP DP  RH WIND       PRES   REMARKS
ESTEVAN        CLEAR     39  36  87 S7        29.97S
KINDERSLEY     PTCLDY    41  36  81 S9        29.73S
LLOYDMINSTER   CLEAR     45  36  70 S7        29.62F
PRINCE ALBERT  PTCLDY    37  36  93 E9        29.80F
REGINA         CLEAR     39  36  87 SE13      29.90F
YORKTON        CLEAR     43  39  87 SE12      29.95S


USA.gov is the U.S. government's official web portal to all federal, state and local government web resources and services.